CZ-2D R/B (53317 NORAD) Tracking and Keplerian Element Data

This shows tracking and keplerian element data for the satellite.

Feedback or suggestion? Click here.




ElementValue
Catalog53317
NameCZ-2D R/B
Epoch Orbit397
Epoch Day236.62293081
Epoch Year2022
RAAN320.4573
Inclination34.9947
Eccentricity0.0005917
Argument of Perigee125.6566
Mean Anonmoly344.3434
Mean Motion15.25320518
Decay Rate0.00021705
L11 53317U 22088B 22236.62293081 .00021705 00000+0 83919-3 0 9992
L22 53317 34.9947 320.4573 0005917 125.6566 344.3434 15.25320518 3970



Live tracking and technical data element details for CZ-2D R/B (NORAD 53317). CZ-2D R/B can be tracked NOW for your location showing map with azimuth and elevation plus other details from your city location.







IsCatalogInMostPopularTable: catalog: 53317, numindb: 6
Update: records affected: 1



GetName: 53317 CZ-2D R/B

Hit Count: updated at: Tue, 29 Nov 2022 00:17:32 GMT